www.pogodaiklimat.ru

Погода и климат >> Архив погоды >> Казахстан >> Костанай


АРХИВ ПОГОДЫ в Костанае

Время (UTC), дата Ветер
(напр.,м/с)
 
Видим.   Явления Облачность Т
(С)
Тd
(С)
f
(%)
Тe
(С)
Тes
(С)
Комфортность P
(гПа)
Po
(гПа)
Тmin
(С)
Tmax
(С)
R
(мм)
R24
(мм)
S
(см)
21 16.04 В 3 н/о ясно -0.9 -7.0 63 -5 -5 холодно 1016.8 997.5
00 17.04 В 4 н/о ясно -2.0 -7.4 67 -8 -8 холодно 1017.5 998.2
03 17.04 В 1 50 км ясно +1.3 -6.1 58 0 +3 по сезону 1018.3 999.2
06 17.04 ЮВ 1 50 км 9/3 1000 м
[Cu hum Ci]
+6.2 -2.7 53 +6 +13 по сезону 1018.7 1000.0 -2.0
09 17.04 В 3 50 км 9/4 600 м
[Cu hum Ci]
+7.7 -4.4 42 +6 +10 по сезону 1018.3 999.7
12 17.04 С 1 50 км 9/0
[Ci]
+7.9 -5.4 38 +8 +12 по сезону 1018.5 999.9
15 17.04 С 1 50 км 9/0
[Ac trans]
+5.4 -5.0 47 +5 +5 по сезону 1019.0 1000.2 +9.1
18 17.04 В 4 н/о 10/0
[As op]
+2.6 -5.6 55 -2 -2 прохладно 1019.3 1000.3 +9.1
21 17.04 В 3 н/о 4/0
[Ac trans]
+1.7 -4.9 62 -2 -2 прохладно 1019.2 1000.2
00 18.04 В 3 н/о 9/0
[Ac trans]
+1.3 -4.6 65 -3 -3 по сезону 1019.0 999.9
03 18.04 В 4 50 км 9/0
[Ac trans]
+2.7 -4.2 60 -2 -1 прохладно 1018.2 999.2
06 18.04 В 8 50 км пыльный позёмок 9/9 600 м
[Sc]
+5.8 -3.2 52 +1 +1 холодно 1018.1 999.4 +1.3
09 18.04 В 5 10 км слабый ливневой дождь {метель} 10/10 600 м
[Cb cap]
+3.5 -2.8 63 -1 -1 очень
холодно
1019.5 1000.7
12 18.04 В 3 20 км {ливн. осадки, метель} 9/9 600 м
[Cb cap]
+4.5 -1.6 65 +1 +2 очень
холодно
1020.0 1001.2
15 18.04 С 1 50 км ясно +2.7 -2.8 67 +1 +1 холодно 1021.1 1002.1 +6.4
18 18.04 С 1 н/о ясно -2.7 -7.8 68 -5 -5 очень
холодно
1022.4 1002.9 -6.4 0.0
21 18.04 С 1 н/о ясно -4.7 -9.1 71 -7 -7 очень
холодно
1022.7 1003.1
00 19.04 штиль 0 н/о переохл. туман ясно -4.0 -5.2 91 -5 -5 прохладно 1021.5 1002.1
03 19.04 Ю 1 2000 м в посл. час туман ясно -2.4 -4.0 89 -5 -1 очень
холодно
1021.0 1001.7
06 19.04 Ю 4 20 км {туман} 3/3 1000 м
[Cu hum]
+6.6 +2.7 76 +3 +8 прохладно 1019.0 1000.3 -4.7
09 19.04 Ю 5 50 км 6/0
[Ac lent Ci fib]
+10.4 +3.8 64 +8 +12 по сезону 1016.4 998.0
12 19.04 Ю 5 50 км 6/0
[Ac trans]
+12.1 +3.6 56 +10 +11 по сезону 1013.5 995.3
15 19.04 Ю 4 50 км 8/0
[Ac trans]
+8.2 +1.3 62 +5 +5 по сезону 1013.2 994.7 +13.0
18 19.04 Ю 3 н/о 9/0
[Ac trans]
+7.3 +1.3 66 +5 +5 по сезону 1011.6 993.1 +13.0
21 19.04 Ю 3 н/о 9/9 600 м
[Sc]
+7.8 +2.5 69 +5 +5 по сезону 1009.9 991.5
00 20.04 Ю 3 н/о слабый ливневой дождь 10/10 600 м
[Cb cap]
+8.0 +3.6 74 +5 +5 тепло 1009.1 990.7
03 20.04 Ю 4 20 км {ливн. осадки} 9/8 600 м
[Sc Ac trans]
+7.8 +4.6 80 +5 +5 по сезону 1008.7 990.3
06 20.04 Ю 4 50 км {ливн. осадки} 9/9 600 м
[Cu Sc]
+12.0 +6.5 69 +10 +11 по сезону 1007.0 988.9 +6.5 0.7
09 20.04 ЮЗ 6 50 км 9/6 1000 м
[Cu Sc Ac trans]
+15.3 +6.2 55 +14 +15 тепло 1004.8 987.0
12 20.04 ЮЗ 6
{16}
50 км 9/9 600 м
[Cu Sc]
+16.9 +5.0 45 +16 +16 тепло 1003.1 985.3
15 20.04 Ю 6 50 км 9/9 600 м
[Cu Sc]
+15.3 +5.1 51 +14 +14 тепло 1002.2 984.4 +16.9
18 20.04 Ю 5 н/о 9/9 600 м
[Cu Sc]
+13.2 +4.8 57 +11 +11 тепло 1002.0 984.1 +16.9
21 20.04 Ю 5 н/о 9/9 600 м
[Sc]
+10.2 +4.6 68 +7 +7 тепло 1001.9 983.7
00 21.04 Ю 5 н/о {ливн. осадки} 9/9 600 м
[Cu Sc]
+9.7 +5.8 77 +7 +7 тепло 1000.2 982.1
03 21.04 Ю 5 10 км слабый ливневой дождь 10/10 600 м
[Cb cap]
+8.3 +6.1 86 +5 +5 по сезону 999.5 981.3
06 21.04 Ю 5 10 км слабый ливневой дождь 10/10 600 м
[Cb cap]
+9.1 +7.4 89 +6 +6 по сезону 999.3 981.2 +8.3 0.4
09 21.04 С 5 50 км {ливн. осадки} 10/10 600 м
[Sc diur, vesp]
+4.3 +0.9 79 -1 -1 очень
холодно
999.9 981.4
12 21.04 С 7 50 км {ливн. осадки} 9/9 600 м
[Sc]
+2.1 -2.2 73 -4 -4 очень
холодно
1000.8 982.2
15 21.04 С 5 20 км 10/10 600 м
[Sc]
+0.5 -3.5 75 -5 -5 очень
холодно
1002.9 984.1 +9.1
18 21.04 С 3 н/о 9/9 600 м
[Sc]
-0.3 -4.1 75 -5 -5 очень
холодно
1005.0 986.2 +9.1 3
21 21.04 С 1 н/о 9/9 600 м
[Sc]
-1.6 -5.3 76 -4 -4 холодно 1006.6 987.5
00 22.04 С 1 н/о 1/1 600 м
[Sc]
-3.5 -6.7 78 -6 -6 холодно 1007.7 988.5
03 22.04 С 1 50 км 3/0
[Ci fib]
-1.2 -5.5 73 -3 0 холодно 1008.6 989.5
06 22.04 В 3 50 км 4/4 600 м
[Cu med, cong]
+4.2 -2.3 63 +1 +7 холодно 1008.2 989.6 -4.4
09 22.04 Ю 2 50 км 8/8 1000 м
[Cu med, cong]
+8.9 -0.2 53 +8 +10 по сезону 1006.9 988.5
12 22.04 Ю 3 50 км 6/6 1000 м
[Cu med, cong]
+11.2 0.0 46 +10 +11 по сезону 1005.9 987.7
15 22.04 ЮВ 3 50 км 9/9 600 м
[Sc]
+9.6 -0.5 49 +8 +8 по сезону 1005.5 987.3 +11.2
18 22.04 ЮВ 3 н/о 9/9 600 м
[Sc]
+6.0 -2.2 56 +3 +3 по сезону 1006.4 987.9 +11.2
21 22.04 ЮВ 1 н/о 9/9 600 м
[Sc]
+1.7 -4.9 62 0 0 по сезону 1005.9 987.2
00 23.04 Ю 3 н/о 8/0
[Ac lent]
+3.1 -0.4 78 -1 -1 по сезону 1005.3 986.6
03 23.04 Ю 3 50 км 8/0
[Ac lent Ci]
+6.0 +1.5 73 +3 +5 по сезону 1005.0 986.6
06 23.04 Ю 5 50 км 6/0
[Ac lent Ci fib]
+15.2 +7.6 60 +14 +19 тепло 1003.8 986.0 +1.7
09 23.04 Ю 8 50 км 9/9 1000 м
[Cu med, cong]
+15.6 +5.3 50 +14 +14 тепло 1003.0 985.2
12 23.04 Ю 6 50 км 9/9 600 м
[Cu med, cong]
+15.4 +6.1 54 +14 +14 тепло 1002.5 984.7
15 23.04 Ю 4 20 км {ливн. осадки} 9/9 600 м
[Sc]
+10.7 +5.3 69 +8 +8 по сезону 1002.6 984.4 +17.2
18 23.04 Ю 4 н/о слабый ливневой дождь 10/10 600 м
[Cb cap]
+9.3 +5.6 78 +6 +6 по сезону 1001.7 983.5 +17.2 1

 

Местоположение метеостанции Костанай (Костанайская область, Казахстан): широта 53.22 долгота 63.62 высота над уровнем моря 156 м.

В архиве по умолчанию представлена погода в Костанае за последнюю неделю. Архивные данные за месяц целиком и за предыдущие месяцы, начиная с января 2011 года, Вы можете получить, выбрав интересующий диапазон дат из раскрывающегося списка и нажав кнопку "Ввод!".


*Определитесь, кто Вы:
робот инопланетянин человек

Внимание! Время в таблицах - всемирное. Для получения местного времени необходимо прибавить поправку, которая в Костанае равна 6 ч.

Смотрите также архив погоды в соседних городах и на ближайших метеорологических станциях:

Погода в Костанае 2 (Костанайская область, Казахстан) (3 км)
Погода в Рудном (Костанайская область, Казахстан) (43 км)
Погода в Тоболе (Костанайская область, Казахстан) (91 км)
Погода в Кусмурыне (Костанайская область, Казахстан) (109 км)
Погода в Карабалыке (Костанайская область, Казахстан) (118 км)
Погода в Сарыколе (Костанайская область, Казахстан) (129 км)
Погода в Михайловке (Костанайская область, Казахстан) (136 км)
Погода в Диевской (Костанайская область, Казахстан) (136 км)
Погода в Карасу (Костанайская область, Казахстан) (140 км)
Погода в Целинном (Курганская область, Россия) (142 км)

Пояснения к столбцам:

Ветер - указаны скорость ветра в м/с - средняя за 10 мин, порывы в срок и между сроками (в фигурных скобках) и направление, откуда дует ветер: С - северный, СВ - северо-восточный, В - восточный, ЮВ - юго-восточный, Ю - южный, ЮЗ - юго-западный, З - западный, СЗ - северо-западный.
Видимость - горизонтальная дальность видимости в метрах или километрах. При видимости от 1 до 10 км при отсутствии осадков обычно наблюдается дымка, при ухудшении видимости до 1 км и менее - туман. В сухую погоду видимость может ухудшаться дымом, пылью или мглою.
Явления - указаны атмосферные явления, наблюдавшиеся в срок или в последний час перед сроком; фигурными скобками обозначены явления, наблюдавшиеся между сроками (за 1-3 часа до срока); квадратными скобками обозначены град или гололедные отложения с указанием их диаметра в мм.
Облачность - указаны через наклонную черту общая и нижняя облачность в баллах и высота нижней границы облаков в метрах; квадратными скобками обозначены формы облаков: Ci - перистые, Cs - перисто-слоистые, Cc - перисто-кучевые, Ac - высококучевые, As - высокослоистые, Sc - слоисто-кучевые, Ns - слоисто-дождевые, Cu - кучевые, Cb - кучево-дождевые. Подробнее классификацию облаков см. в Атласе облаков (PDF).
T - Температура воздуха - температура, измеренная на высоте 2 м над землей.
Td - Температура точки росы - температура, при понижении до которой содержащийся в воздухе водяной пар достигнет насыщения.
f - Относительная влажность воздуха - влажноcть воздуха, измеренная на высоте 2 м над землей.
Te - Эффективная температура - температура, которую ощущает одетый по сезону человек в тени. Характеристика душности погоды. При расчете учитывается влияние влажности воздуха и скорости ветра на теплоощущения человека.
Tes - Эффективная температура на солнце - температура, которую ощущает человек, с поправкой на солнечный нагрев. Характеристика знойности погоды. Зависит от высоты солнца над горизонтом, облачности и скорости ветра. Ночью, в пасмурную погоду, а также при ветре 12 м/с и более поправка равна нулю.
P - Атмосферное давление - приведенное к уровню моря атмосферное давление.
Po - Атмосферное давление - измеренное на уровне метеостанции атмосферное давление.
Tmin - Минимальная температура - минимум температуры воздуха на высоте 2 м над землей.
Tmax - Максимальная температура - максимум температуры воздуха на высоте 2 м над землей.
R - Количество осадков - Количество выпавших осадков за период времени, мм. При наведении курсора мыши на число - период времени, за который выпало указанное количество осадков.
R24 - Количество осадков - Количество выпавших осадков за 24 часа, мм.
S - Снежный покров - Высота снежного покрова, см. При наведении курсора мыши на число - состояние снежного покрова и степень покрытия местности в баллах.